contact:dominique.lefevre@mio.osupytheas.fr, maurice.libes@osupytheas.fr, didier.mallarino@osupytheas.fr
Project:EMSO http://www.emso-fr.org/EMSO-France
Depth: 2436.0 m
Title:EMSO Ligure Ouest : Data MII capteur MICROCAT
DateTime_Computer,Latitude,Longitude,Temperature,Conductivity,Pressure,DateTime_Instrument
DateTime_Computer,Latitude,Longitude,degC,S m-1,dbar,DateTime_Instrument
2020-12-25T00:00:04Z,42.805,6.029,13.3008,4.60001,2470.087,2020-12-25T02:01:03Z
2020-12-25T00:03:07Z,42.805,6.029,13.3005,4.60008,2470.1,2020-12-25T02:04:07Z
2020-12-25T00:06:10Z,42.805,6.029,13.3015,4.60005,2470.04,2020-12-25T02:07:10Z
2020-12-25T00:09:13Z,42.805,6.029,13.3019,4.60006,2470.04,2020-12-25T02:10:13Z
2020-12-25T00:12:16Z,42.805,6.029,13.3000,4.60006,2470.087,2020-12-25T02:13:16Z
2020-12-25T00:15:19Z,42.805,6.029,13.3000,4.60008,2470.077,2020-12-25T02:16:19Z
2020-12-25T00:18:22Z,42.805,6.029,13.3010,4.60009,2470.1,2020-12-25T02:19:22Z
2020-12-25T00:21:26Z,42.805,6.029,13.3002,4.60009,2470.053,2020-12-25T02:22:25Z
2020-12-25T00:24:29Z,42.805,6.029,13.3011,4.60016,2470.1,2020-12-25T02:25:28Z
2020-12-25T00:27:32Z,42.805,6.029,13.3011,4.60011,2470.087,2020-12-25T02:28:31Z
2020-12-25T00:30:35Z,42.805,6.029,13.3020,4.60031,2470.063,2020-12-25T02:31:35Z
2020-12-25T00:33:38Z,42.805,6.029,13.3019,4.60009,2470.063,2020-12-25T02:34:38Z
2020-12-25T00:36:41Z,42.805,6.029,13.3009,4.60007,2470.063,2020-12-25T02:37:41Z
2020-12-25T00:39:44Z,42.805,6.029,13.3000,4.60001,2470.1,2020-12-25T02:40:44Z
2020-12-25T00:42:47Z,42.805,6.029,13.2995,4.59998,2470.04,2020-12-25T02:43:47Z
2020-12-25T00:45:51Z,42.805,6.029,13.2996,4.60006,2470.077,2020-12-25T02:46:50Z
2020-12-25T00:48:54Z,42.805,6.029,13.2994,4.60011,2470.087,2020-12-25T02:49:53Z
2020-12-25T00:51:57Z,42.805,6.029,13.2998,4.60019,2470.063,2020-12-25T02:52:56Z
2020-12-25T00:55:00Z,42.805,6.029,13.3009,4.60009,2470.077,2020-12-25T02:56:00Z
2020-12-25T00:58:03Z,42.805,6.029,13.3004,4.60003,2470.1,2020-12-25T02:59:03Z
2020-12-25T01:01:06Z,42.805,6.029,13.3000,4.60007,2470.087,2020-12-25T03:02:06Z
2020-12-25T01:04:09Z,42.805,6.029,13.3005,4.60009,2470.1,2020-12-25T03:05:09Z
2020-12-25T01:07:12Z,42.805,6.029,13.3041,4.60008,2470.077,2020-12-25T03:08:12Z
2020-12-25T01:10:15Z,42.805,6.029,13.2998,4.60011,2470.077,2020-12-25T03:11:15Z
2020-12-25T01:13:19Z,42.805,6.029,13.2999,4.60005,2470.087,2020-12-25T03:14:18Z
2020-12-25T01:16:22Z,42.805,6.029,13.3000,4.60002,2470.087,2020-12-25T03:17:21Z
2020-12-25T01:19:25Z,42.805,6.029,13.3000,4.60000,2470.1,2020-12-25T03:20:25Z
2020-12-25T01:22:28Z,42.805,6.029,13.3007,4.60003,2470.124,2020-12-25T03:23:28Z
2020-12-25T01:25:31Z,42.805,6.029,13.2996,4.60003,2470.138,2020-12-25T03:26:31Z
2020-12-25T01:28:34Z,42.805,6.029,13.3002,4.59997,2470.124,2020-12-25T03:29:34Z
2020-12-25T01:31:37Z,42.805,6.029,13.3001,4.60001,2470.124,2020-12-25T03:32:37Z
2020-12-25T01:34:40Z,42.805,6.029,13.3003,4.60006,2470.1,2020-12-25T03:35:40Z
2020-12-25T01:37:44Z,42.805,6.029,13.3003,4.60003,2470.077,2020-12-25T03:38:43Z
2020-12-25T01:40:47Z,42.805,6.029,13.2997,4.60010,2470.124,2020-12-25T03:41:46Z
2020-12-25T01:43:50Z,42.805,6.029,13.3003,4.59994,2470.124,2020-12-25T03:44:50Z
2020-12-25T01:46:53Z,42.805,6.029,13.2998,4.60001,2470.124,2020-12-25T03:47:53Z
2020-12-25T01:49:56Z,42.805,6.029,13.2996,4.59999,2470.11,2020-12-25T03:50:56Z
2020-12-25T01:52:59Z,42.805,6.029,13.2996,4.59996,2470.11,2020-12-25T03:53:59Z
2020-12-25T01:56:02Z,42.805,6.029,13.2999,4.60001,2470.087,2020-12-25T03:57:02Z
2020-12-25T01:59:05Z,42.805,6.029,13.2994,4.60000,2470.119,2020-12-25T04:00:05Z
2020-12-25T02:02:09Z,42.805,6.029,13.2998,4.60007,2470.087,2020-12-25T04:03:08Z
2020-12-25T02:05:12Z,42.805,6.029,13.2996,4.59999,2470.1,2020-12-25T04:06:11Z
2020-12-25T02:08:15Z,42.805,6.029,13.2998,4.60001,2470.124,2020-12-25T04:09:15Z
2020-12-25T02:11:18Z,42.805,6.029,13.2996,4.59998,2470.156,2020-12-25T04:12:18Z
2020-12-25T02:14:21Z,42.805,6.029,13.2993,4.60006,2470.133,2020-12-25T04:15:21Z
2020-12-25T02:17:24Z,42.805,6.029,13.2998,4.59999,2470.11,2020-12-25T04:18:24Z
2020-12-25T02:20:27Z,42.805,6.029,13.2996,4.60002,2470.11,2020-12-25T04:21:27Z
2020-12-25T02:23:30Z,42.805,6.029,13.3000,4.60001,2470.11,2020-12-25T04:24:30Z
2020-12-25T02:26:34Z,42.805,6.029,13.2999,4.60003,2470.087,2020-12-25T04:27:33Z
2020-12-25T02:29:37Z,42.805,6.029,13.3004,4.60006,2470.156,2020-12-25T04:30:36Z
2020-12-25T02:32:40Z,42.805,6.029,13.3004,4.60009,2470.11,2020-12-25T04:33:40Z
2020-12-25T02:35:43Z,42.805,6.029,13.2999,4.60015,2470.147,2020-12-25T04:36:43Z
2020-12-25T02:38:46Z,42.805,6.029,13.3004,4.60009,2470.147,2020-12-25T04:39:46Z
2020-12-25T02:41:49Z,42.805,6.029,13.3001,4.60003,2470.133,2020-12-25T04:42:49Z
2020-12-25T02:44:52Z,42.805,6.029,13.3004,4.59999,2470.156,2020-12-25T04:45:52Z
2020-12-25T02:47:55Z,42.805,6.029,13.3007,4.60005,2470.156,2020-12-25T04:48:55Z
2020-12-25T02:50:59Z,42.805,6.029,13.3009,4.60005,2470.156,2020-12-25T04:51:58Z
2020-12-25T02:54:02Z,42.805,6.029,13.3019,4.60001,2470.11,2020-12-25T04:55:01Z
2020-12-25T02:57:05Z,42.805,6.029,13.2999,4.60002,2470.147,2020-12-25T04:58:04Z
2020-12-25T03:00:08Z,42.805,6.029,13.2997,4.60008,2470.147,2020-12-25T05:01:08Z
2020-12-25T03:03:11Z,42.805,6.029,13.2993,4.60011,2470.171,2020-12-25T05:04:11Z
2020-12-25T03:06:14Z,42.805,6.029,13.2998,4.60002,2470.124,2020-12-25T05:07:14Z
2020-12-25T03:09:17Z,42.805,6.029,13.3002,4.59996,2470.156,2020-12-25T05:10:17Z
2020-12-25T03:12:20Z,42.805,6.029,13.3004,4.60009,2470.147,2020-12-25T05:13:20Z
2020-12-25T03:15:23Z,42.805,6.029,13.3010,4.60019,2470.124,2020-12-25T05:16:23Z
2020-12-25T03:18:27Z,42.805,6.029,13.3002,4.60001,2470.156,2020-12-25T05:19:26Z
2020-12-25T03:21:30Z,42.805,6.029,13.3000,4.60002,2470.133,2020-12-25T05:22:29Z
2020-12-25T03:24:33Z,42.805,6.029,13.2990,4.60015,2470.194,2020-12-25T05:25:33Z
2020-12-25T03:27:36Z,42.805,6.029,13.2995,4.60011,2470.124,2020-12-25T05:28:36Z
2020-12-25T03:30:39Z,42.805,6.029,13.3014,4.60008,2470.147,2020-12-25T05:31:39Z
2020-12-25T03:33:42Z,42.805,6.029,13.3007,4.60011,2470.194,2020-12-25T05:34:42Z
2020-12-25T03:36:45Z,42.805,6.029,13.3008,4.60010,2470.171,2020-12-25T05:37:45Z
2020-12-25T03:39:49Z,42.805,6.029,13.3007,4.60021,2470.147,2020-12-25T05:40:48Z
2020-12-25T03:42:52Z,42.805,6.029,13.3006,4.60012,2470.171,2020-12-25T05:43:51Z
2020-12-25T03:45:55Z,42.805,6.029,13.3000,4.60002,2470.156,2020-12-25T05:46:54Z
2020-12-25T03:48:58Z,42.805,6.029,13.3033,4.60024,2470.156,2020-12-25T05:49:58Z
2020-12-25T03:52:01Z,42.805,6.029,13.3007,4.60005,2470.133,2020-12-25T05:53:01Z
2020-12-25T03:55:04Z,42.805,6.029,13.3004,4.60002,2470.147,2020-12-25T05:56:04Z
2020-12-25T03:58:07Z,42.805,6.029,13.3012,4.60021,2470.133,2020-12-25T05:59:07Z
2020-12-25T04:01:10Z,42.805,6.029,13.3009,4.60013,2470.133,2020-12-25T06:02:10Z
2020-12-25T04:04:13Z,42.805,6.029,13.3015,4.60000,2470.156,2020-12-25T06:05:13Z
2020-12-25T04:07:17Z,42.805,6.029,13.2994,4.60011,2470.133,2020-12-25T06:08:16Z
2020-12-25T04:10:20Z,42.805,6.029,13.2998,4.60021,2470.18,2020-12-25T06:11:19Z
2020-12-25T04:13:23Z,42.805,6.029,13.3011,4.60016,2470.171,2020-12-25T06:14:23Z
2020-12-25T04:16:26Z,42.805,6.029,13.3007,4.60008,2470.156,2020-12-25T06:17:26Z
2020-12-25T04:19:29Z,42.805,6.029,13.3018,4.60009,2470.133,2020-12-25T06:20:29Z
2020-12-25T04:22:32Z,42.805,6.029,13.2999,4.60004,2470.156,2020-12-25T06:23:32Z
2020-12-25T04:25:35Z,42.805,6.029,13.2998,4.60026,2470.156,2020-12-25T06:26:35Z
2020-12-25T04:28:38Z,42.805,6.029,13.3001,4.60019,2470.156,2020-12-25T06:29:38Z
2020-12-25T04:31:42Z,42.805,6.029,13.3009,4.60019,2470.18,2020-12-25T06:32:41Z
2020-12-25T04:34:45Z,42.805,6.029,13.3004,4.60010,2470.147,2020-12-25T06:35:44Z
2020-12-25T04:37:48Z,42.805,6.029,13.3000,4.60011,2470.156,2020-12-25T06:38:48Z
2020-12-25T04:40:51Z,42.805,6.029,13.2983,4.60005,2470.171,2020-12-25T06:41:51Z
2020-12-25T04:43:54Z,42.805,6.029,13.3022,4.60019,2470.147,2020-12-25T06:44:54Z
2020-12-25T04:46:57Z,42.805,6.029,13.2999,4.60028,2470.171,2020-12-25T06:47:57Z
2020-12-25T04:50:00Z,42.805,6.029,13.2990,4.60019,2470.156,2020-12-25T06:51:00Z
2020-12-25T04:53:03Z,42.805,6.029,13.2986,4.60026,2470.18,2020-12-25T06:54:03Z
2020-12-25T04:56:07Z,42.805,6.029,13.2993,4.60011,2470.194,2020-12-25T06:57:06Z
2020-12-25T04:59:10Z,42.805,6.029,13.2983,4.60001,2470.156,2020-12-25T07:00:09Z
2020-12-25T05:02:13Z,42.805,6.029,13.2988,4.59995,2470.156,2020-12-25T07:03:13Z
2020-12-25T05:05:16Z,42.805,6.029,13.2986,4.59997,2470.156,2020-12-25T07:06:16Z
2020-12-25T05:08:19Z,42.805,6.029,13.2986,4.60007,2470.156,2020-12-25T07:09:19Z
2020-12-25T05:11:22Z,42.805,6.029,13.2984,4.59995,2470.156,2020-12-25T07:12:22Z
2020-12-25T05:14:25Z,42.805,6.029,13.2981,4.59991,2470.171,2020-12-25T07:15:25Z
2020-12-25T05:17:28Z,42.805,6.029,13.2983,4.59995,2470.171,2020-12-25T07:18:28Z
2020-12-25T05:20:32Z,42.805,6.029,13.2983,4.59990,2470.133,2020-12-25T07:21:31Z
2020-12-25T05:23:35Z,42.805,6.029,13.2982,4.59993,2470.156,2020-12-25T07:24:34Z
2020-12-25T05:26:38Z,42.805,6.029,13.2986,4.59988,2470.156,2020-12-25T07:27:38Z
2020-12-25T05:29:41Z,42.805,6.029,13.2983,4.59988,2470.156,2020-12-25T07:30:41Z
2020-12-25T05:32:44Z,42.805,6.029,13.2979,4.59987,2470.171,2020-12-25T07:33:44Z
2020-12-25T05:35:47Z,42.805,6.029,13.2984,4.59988,2470.156,2020-12-25T07:36:47Z
2020-12-25T05:38:50Z,42.805,6.029,13.2983,4.59989,2470.18,2020-12-25T07:39:50Z
2020-12-25T05:41:53Z,42.805,6.029,13.2983,4.59990,2470.133,2020-12-25T07:42:53Z
2020-12-25T05:44:57Z,42.805,6.029,13.2982,4.59987,2470.156,2020-12-25T07:45:56Z
2020-12-25T05:48:00Z,42.805,6.029,13.2983,4.59987,2470.147,2020-12-25T07:48:59Z
2020-12-25T05:51:03Z,42.805,6.029,13.2981,4.59987,2470.156,2020-12-25T07:52:02Z
2020-12-25T05:54:06Z,42.805,6.029,13.2982,4.59986,2470.133,2020-12-25T07:55:06Z
2020-12-25T05:57:09Z,42.805,6.029,13.2980,4.59987,2470.171,2020-12-25T07:58:09Z
2020-12-25T06:00:12Z,42.805,6.029,13.2982,4.59991,2470.133,2020-12-25T08:01:12Z
2020-12-25T06:03:15Z,42.805,6.029,13.2982,4.59986,2470.133,2020-12-25T08:04:15Z
2020-12-25T06:06:18Z,42.805,6.029,13.2981,4.59986,2470.171,2020-12-25T08:07:18Z
2020-12-25T06:09:21Z,42.805,6.029,13.2982,4.59986,2470.18,2020-12-25T08:10:21Z
2020-12-25T06:12:25Z,42.805,6.029,13.2979,4.59986,2470.156,2020-12-25T08:13:24Z
2020-12-25T06:15:28Z,42.805,6.029,13.2980,4.59987,2470.124,2020-12-25T08:16:27Z
2020-12-25T06:18:31Z,42.805,6.029,13.2982,4.59988,2470.156,2020-12-25T08:19:31Z
2020-12-25T06:21:34Z,42.805,6.029,13.2983,4.59988,2470.133,2020-12-25T08:22:34Z
2020-12-25T06:24:37Z,42.805,6.029,13.2982,4.59986,2470.133,2020-12-25T08:25:37Z
2020-12-25T06:27:40Z,42.805,6.029,13.2979,4.59986,2470.156,2020-12-25T08:28:40Z
2020-12-25T06:30:43Z,42.805,6.029,13.2982,4.59986,2470.147,2020-12-25T08:31:43Z
2020-12-25T06:33:46Z,42.805,6.029,13.2979,4.59987,2470.11,2020-12-25T08:34:46Z
2020-12-25T06:36:50Z,42.805,6.029,13.2982,4.59986,2470.11,2020-12-25T08:37:49Z
2020-12-25T06:39:53Z,42.805,6.029,13.2979,4.59986,2470.133,2020-12-25T08:40:52Z
2020-12-25T06:42:56Z,42.805,6.029,13.2979,4.59988,2470.133,2020-12-25T08:43:56Z
2020-12-25T06:45:59Z,42.805,6.029,13.2981,4.59987,2470.147,2020-12-25T08:46:59Z
2020-12-25T06:49:02Z,42.805,6.029,13.2982,4.59988,2470.147,2020-12-25T08:50:02Z
2020-12-25T06:52:05Z,42.805,6.029,13.2978,4.59986,2470.133,2020-12-25T08:53:05Z
2020-12-25T06:55:08Z,42.805,6.029,13.2982,4.59986,2470.171,2020-12-25T08:56:08Z
2020-12-25T06:58:11Z,42.805,6.029,13.2982,4.59987,2470.133,2020-12-25T08:59:11Z
2020-12-25T07:01:15Z,42.805,6.029,13.2980,4.59993,2470.156,2020-12-25T09:02:14Z
2020-12-25T07:04:18Z,42.805,6.029,13.2983,4.59989,2470.133,2020-12-25T09:05:17Z
2020-12-25T07:07:21Z,42.805,6.029,13.2986,4.59988,2470.156,2020-12-25T09:08:21Z
2020-12-25T07:10:24Z,42.805,6.029,13.2979,4.59989,2470.133,2020-12-25T09:11:24Z
2020-12-25T07:13:27Z,42.805,6.029,13.2980,4.59991,2470.147,2020-12-25T09:14:27Z
2020-12-25T07:16:30Z,42.805,6.029,13.2986,4.59987,2470.133,2020-12-25T09:17:30Z
2020-12-25T07:19:33Z,42.805,6.029,13.2982,4.59987,2470.133,2020-12-25T09:20:33Z
2020-12-25T07:22:36Z,42.805,6.029,13.2983,4.59989,2470.156,2020-12-25T09:23:36Z
2020-12-25T07:25:40Z,42.805,6.029,13.2985,4.59988,2470.11,2020-12-25T09:26:39Z
2020-12-25T07:28:43Z,42.805,6.029,13.2983,4.59987,2470.133,2020-12-25T09:29:42Z
2020-12-25T07:31:46Z,42.805,6.029,13.2982,4.59988,2470.11,2020-12-25T09:32:45Z
2020-12-25T07:34:49Z,42.805,6.029,13.2982,4.59987,2470.11,2020-12-25T09:35:49Z
2020-12-25T07:37:52Z,42.805,6.029,13.2983,4.59986,2470.133,2020-12-25T09:38:52Z
2020-12-25T07:40:55Z,42.805,6.029,13.2986,4.59987,2470.156,2020-12-25T09:41:55Z
2020-12-25T07:43:58Z,42.805,6.029,13.2979,4.59987,2470.147,2020-12-25T09:44:58Z
2020-12-25T07:47:01Z,42.805,6.029,13.2989,4.59986,2470.133,2020-12-25T09:48:01Z
2020-12-25T07:50:05Z,42.805,6.029,13.2982,4.59987,2470.147,2020-12-25T09:51:04Z
2020-12-25T07:53:08Z,42.805,6.029,13.2984,4.59988,2470.156,2020-12-25T09:54:07Z
2020-12-25T07:56:11Z,42.805,6.029,13.2982,4.59987,2470.147,2020-12-25T09:57:10Z
2020-12-25T07:59:14Z,42.805,6.029,13.2983,4.59988,2470.133,2020-12-25T10:00:14Z
2020-12-25T08:02:17Z,42.805,6.029,13.2984,4.59987,2470.1,2020-12-25T10:03:17Z
2020-12-25T08:05:20Z,42.805,6.029,13.2983,4.59987,2470.119,2020-12-25T10:06:20Z
2020-12-25T08:08:23Z,42.805,6.029,13.2979,4.59986,2470.133,2020-12-25T10:09:23Z
2020-12-25T08:11:26Z,42.805,6.029,13.2984,4.59986,2470.124,2020-12-25T10:12:26Z
2020-12-25T08:14:29Z,42.805,6.029,13.2982,4.59987,2470.11,2020-12-25T10:15:29Z
2020-12-25T08:17:33Z,42.805,6.029,13.2983,4.59986,2470.11,2020-12-25T10:18:32Z
2020-12-25T08:20:36Z,42.805,6.029,13.2981,4.59986,2470.156,2020-12-25T10:21:35Z
2020-12-25T08:23:39Z,42.805,6.029,13.2984,4.59986,2470.124,2020-12-25T10:24:39Z
2020-12-25T08:26:42Z,42.805,6.029,13.2983,4.59987,2470.147,2020-12-25T10:27:42Z
2020-12-25T08:29:45Z,42.805,6.029,13.2985,4.59987,2470.11,2020-12-25T10:30:45Z
2020-12-25T08:32:48Z,42.805,6.029,13.2978,4.59987,2470.124,2020-12-25T10:33:48Z
2020-12-25T08:35:51Z,42.805,6.029,13.2980,4.59990,2470.147,2020-12-25T10:36:51Z
2020-12-25T08:38:55Z,42.805,6.029,13.2985,4.59986,2470.147,2020-12-25T10:39:54Z
2020-12-25T08:41:58Z,42.805,6.029,13.2986,4.59986,2470.11,2020-12-25T10:42:57Z
2020-12-25T08:45:01Z,42.805,6.029,13.2981,4.59987,2470.156,2020-12-25T10:46:00Z
2020-12-25T08:48:04Z,42.805,6.029,13.2980,4.59986,2470.11,2020-12-25T10:49:04Z
2020-12-25T08:51:07Z,42.805,6.029,13.2982,4.59985,2470.147,2020-12-25T10:52:07Z
2020-12-25T08:54:10Z,42.805,6.029,13.2982,4.59985,2470.11,2020-12-25T10:55:10Z
2020-12-25T08:57:13Z,42.805,6.029,13.2979,4.59984,2470.133,2020-12-25T10:58:13Z
2020-12-25T09:00:16Z,42.805,6.029,13.2982,4.59984,2470.073,2020-12-25T11:01:16Z
2020-12-25T09:03:19Z,42.805,6.029,13.2981,4.59985,2470.133,2020-12-25T11:04:19Z
2020-12-25T09:06:23Z,42.805,6.029,13.2982,4.59984,2470.133,2020-12-25T11:07:22Z
2020-12-25T09:09:26Z,42.805,6.029,13.2977,4.59983,2470.133,2020-12-25T11:10:25Z
2020-12-25T09:12:29Z,42.805,6.029,13.2980,4.59984,2470.124,2020-12-25T11:13:29Z
2020-12-25T09:15:32Z,42.805,6.029,13.2980,4.59986,2470.133,2020-12-25T11:16:32Z
2020-12-25T09:18:35Z,42.805,6.029,13.2982,4.59984,2470.124,2020-12-25T11:19:35Z
2020-12-25T09:21:38Z,42.805,6.029,13.2980,4.59985,2470.119,2020-12-25T11:22:38Z
2020-12-25T09:24:41Z,42.805,6.029,13.2981,4.59984,2470.147,2020-12-25T11:25:41Z
2020-12-25T09:27:45Z,42.805,6.029,13.2983,4.59985,2470.133,2020-12-25T11:28:44Z
2020-12-25T09:30:48Z,42.805,6.029,13.2976,4.59985,2470.11,2020-12-25T11:31:47Z
2020-12-25T09:33:51Z,42.805,6.029,13.2981,4.59985,2470.147,2020-12-25T11:34:51Z
2020-12-25T09:36:54Z,42.805,6.029,13.2979,4.59983,2470.096,2020-12-25T11:37:54Z
2020-12-25T09:39:57Z,42.805,6.029,13.2979,4.59984,2470.11,2020-12-25T11:40:57Z
2020-12-25T09:43:00Z,42.805,6.029,13.2979,4.59986,2470.147,2020-12-25T11:44:00Z
2020-12-25T09:46:03Z,42.805,6.029,13.2983,4.59984,2470.133,2020-12-25T11:47:03Z
2020-12-25T09:49:06Z,42.805,6.029,13.2979,4.59983,2470.147,2020-12-25T11:50:06Z
2020-12-25T09:52:10Z,42.805,6.029,13.2981,4.59983,2470.133,2020-12-25T11:53:09Z
2020-12-25T09:55:13Z,42.805,6.029,13.2979,4.59983,2470.1,2020-12-25T11:56:12Z
2020-12-25T09:58:16Z,42.805,6.029,13.2983,4.59984,2470.124,2020-12-25T11:59:16Z
2020-12-25T10:01:19Z,42.805,6.029,13.2982,4.59984,2470.11,2020-12-25T12:02:19Z
2020-12-25T10:04:22Z,42.805,6.029,13.2977,4.59984,2470.147,2020-12-25T12:05:22Z
2020-12-25T10:07:25Z,42.805,6.029,13.2980,4.59985,2470.124,2020-12-25T12:08:25Z
2020-12-25T10:10:28Z,42.805,6.029,13.2982,4.59984,2470.124,2020-12-25T12:11:28Z
2020-12-25T10:13:31Z,42.805,6.029,13.2983,4.59985,2470.11,2020-12-25T12:14:31Z
2020-12-25T10:16:35Z,42.805,6.029,13.2978,4.59984,2470.124,2020-12-25T12:17:34Z
2020-12-25T10:19:38Z,42.805,6.029,13.2979,4.59985,2470.124,2020-12-25T12:20:37Z
2020-12-25T10:22:41Z,42.805,6.029,13.2983,4.59985,2470.11,2020-12-25T12:23:41Z
2020-12-25T10:25:44Z,42.805,6.029,13.2985,4.59984,2470.124,2020-12-25T12:26:44Z
2020-12-25T10:28:47Z,42.805,6.029,13.2979,4.59986,2470.124,2020-12-25T12:29:47Z
2020-12-25T10:31:50Z,42.805,6.029,13.2985,4.59984,2470.133,2020-12-25T12:32:50Z
2020-12-25T10:34:53Z,42.805,6.029,13.2982,4.59984,2470.147,2020-12-25T12:35:53Z
2020-12-25T10:37:56Z,42.805,6.029,13.2979,4.59984,2470.11,2020-12-25T12:38:56Z
2020-12-25T10:41:00Z,42.805,6.029,13.2979,4.59985,2470.1,2020-12-25T12:41:59Z
2020-12-25T10:44:03Z,42.805,6.029,13.2983,4.59986,2470.124,2020-12-25T12:45:02Z
2020-12-25T10:47:06Z,42.805,6.029,13.2982,4.59987,2470.11,2020-12-25T12:48:06Z
2020-12-25T10:50:09Z,42.805,6.029,13.2986,4.59986,2470.124,2020-12-25T12:51:09Z
2020-12-25T10:53:12Z,42.805,6.029,13.2983,4.59986,2470.11,2020-12-25T12:54:12Z
2020-12-25T10:56:15Z,42.805,6.029,13.2979,4.59985,2470.077,2020-12-25T12:57:15Z
2020-12-25T10:59:18Z,42.805,6.029,13.2985,4.59985,2470.1,2020-12-25T13:00:18Z
2020-12-25T11:02:21Z,42.805,6.029,13.2980,4.59985,2470.087,2020-12-25T13:03:21Z
2020-12-25T11:05:25Z,42.805,6.029,13.2983,4.59984,2470.124,2020-12-25T13:06:24Z
2020-12-25T11:08:28Z,42.805,6.029,13.2981,4.59985,2470.11,2020-12-25T13:09:27Z
2020-12-25T11:11:31Z,42.805,6.029,13.2982,4.59985,2470.124,2020-12-25T13:12:31Z
2020-12-25T11:14:34Z,42.805,6.029,13.2979,4.59984,2470.124,2020-12-25T13:15:34Z
2020-12-25T11:17:37Z,42.805,6.029,13.2982,4.59985,2470.11,2020-12-25T13:18:37Z
2020-12-25T11:20:40Z,42.805,6.029,13.2982,4.59984,2470.11,2020-12-25T13:21:40Z
2020-12-25T11:23:43Z,42.805,6.029,13.2978,4.59984,2470.11,2020-12-25T13:24:43Z
2020-12-25T11:26:47Z,42.805,6.029,13.2979,4.59988,2470.087,2020-12-25T13:27:46Z
2020-12-25T11:29:50Z,42.805,6.029,13.2981,4.59986,2470.11,2020-12-25T13:30:49Z
2020-12-25T11:32:53Z,42.805,6.029,13.2982,4.59986,2470.11,2020-12-25T13:33:53Z
2020-12-25T11:35:56Z,42.805,6.029,13.2984,4.59986,2470.147,2020-12-25T13:36:56Z
2020-12-25T11:38:59Z,42.805,6.029,13.2982,4.59985,2470.11,2020-12-25T13:39:59Z
2020-12-25T11:42:02Z,42.805,6.029,13.2981,4.59985,2470.133,2020-12-25T13:43:02Z
2020-12-25T11:45:05Z,42.805,6.029,13.2979,4.59985,2470.11,2020-12-25T13:46:05Z
2020-12-25T11:48:08Z,42.805,6.029,13.2980,4.59985,2470.124,2020-12-25T13:49:08Z
2020-12-25T11:51:12Z,42.805,6.029,13.2981,4.59985,2470.124,2020-12-25T13:52:11Z
2020-12-25T11:54:15Z,42.805,6.029,13.2983,4.59986,2470.133,2020-12-25T13:55:14Z
2020-12-25T11:57:18Z,42.805,6.029,13.2980,4.59984,2470.087,2020-12-25T13:58:18Z
2020-12-25T12:00:21Z,42.805,6.029,13.2984,4.59984,2470.124,2020-12-25T14:01:21Z
2020-12-25T12:03:24Z,42.805,6.029,13.2977,4.59986,2470.133,2020-12-25T14:04:24Z
2020-12-25T12:06:27Z,42.805,6.029,13.2976,4.59985,2470.124,2020-12-25T14:07:27Z
2020-12-25T12:09:30Z,42.805,6.029,13.2979,4.59986,2470.147,2020-12-25T14:10:30Z
2020-12-25T12:12:33Z,42.805,6.029,13.2981,4.59986,2470.124,2020-12-25T14:13:33Z
2020-12-25T12:15:37Z,42.805,6.029,13.2982,4.59985,2470.133,2020-12-25T14:16:36Z
2020-12-25T12:18:40Z,42.805,6.029,13.2980,4.59984,2470.124,2020-12-25T14:19:39Z
2020-12-25T12:21:43Z,42.805,6.029,13.2978,4.59985,2470.133,2020-12-25T14:22:43Z
2020-12-25T12:24:46Z,42.805,6.029,13.2980,4.59985,2470.11,2020-12-25T14:25:46Z
2020-12-25T12:27:49Z,42.805,6.029,13.2982,4.59986,2470.133,2020-12-25T14:28:49Z
2020-12-25T12:30:52Z,42.805,6.029,13.2982,4.59985,2470.133,2020-12-25T14:31:52Z
2020-12-25T12:33:55Z,42.805,6.029,13.2981,4.59986,2470.087,2020-12-25T14:34:55Z
2020-12-25T12:36:58Z,42.805,6.029,13.2982,4.59986,2470.147,2020-12-25T14:37:58Z
2020-12-25T12:40:02Z,42.805,6.029,13.2982,4.59985,2470.124,2020-12-25T14:41:01Z
2020-12-25T12:43:05Z,42.805,6.029,13.2980,4.59988,2470.147,2020-12-25T14:44:04Z
2020-12-25T12:46:08Z,42.805,6.029,13.2983,4.59986,2470.133,2020-12-25T14:47:08Z
2020-12-25T12:49:11Z,42.805,6.029,13.2980,4.59986,2470.124,2020-12-25T14:50:11Z
2020-12-25T12:52:14Z,42.805,6.029,13.2982,4.59986,2470.156,2020-12-25T14:53:14Z
2020-12-25T12:55:17Z,42.805,6.029,13.2977,4.59986,2470.133,2020-12-25T14:56:17Z
2020-12-25T12:58:20Z,42.805,6.029,13.2984,4.59986,2470.11,2020-12-25T14:59:20Z
2020-12-25T13:01:23Z,42.805,6.029,13.2979,4.59987,2470.11,2020-12-25T15:02:23Z
2020-12-25T13:04:27Z,42.805,6.029,13.2979,4.59987,2470.156,2020-12-25T15:05:26Z
2020-12-25T13:07:30Z,42.805,6.029,13.2976,4.59987,2470.133,2020-12-25T15:08:29Z
2020-12-25T13:10:33Z,42.805,6.029,13.2979,4.59988,2470.156,2020-12-25T15:11:33Z
2020-12-25T13:13:36Z,42.805,6.029,13.2976,4.59986,2470.147,2020-12-25T15:14:36Z
2020-12-25T13:16:39Z,42.805,6.029,13.2986,4.59986,2470.11,2020-12-25T15:17:39Z
2020-12-25T13:19:42Z,42.805,6.029,13.2981,4.59986,2470.147,2020-12-25T15:20:42Z
2020-12-25T13:22:45Z,42.805,6.029,13.2982,4.59987,2470.147,2020-12-25T15:23:45Z
2020-12-25T13:25:48Z,42.805,6.029,13.2983,4.59988,2470.171,2020-12-25T15:26:48Z
2020-12-25T13:28:52Z,42.805,6.029,13.2981,4.59986,2470.156,2020-12-25T15:29:51Z
2020-12-25T13:31:55Z,42.805,6.029,13.2980,4.59991,2470.156,2020-12-25T15:32:54Z
2020-12-25T13:34:58Z,42.805,6.029,13.2980,4.59989,2470.124,2020-12-25T15:35:58Z
2020-12-25T13:38:01Z,42.805,6.029,13.2982,4.59987,2470.133,2020-12-25T15:39:01Z
2020-12-25T13:41:04Z,42.805,6.029,13.2980,4.59987,2470.133,2020-12-25T15:42:04Z
2020-12-25T13:44:07Z,42.805,6.029,13.2985,4.59988,2470.133,2020-12-25T15:45:07Z
2020-12-25T13:47:10Z,42.805,6.029,13.2981,4.59987,2470.147,2020-12-25T15:48:10Z
2020-12-25T13:50:13Z,42.805,6.029,13.2982,4.59986,2470.156,2020-12-25T15:51:13Z
2020-12-25T13:53:17Z,42.805,6.029,13.2982,4.59986,2470.147,2020-12-25T15:54:16Z
2020-12-25T13:56:20Z,42.805,6.029,13.2981,4.59987,2470.156,2020-12-25T15:57:19Z
2020-12-25T13:59:23Z,42.805,6.029,13.2979,4.59988,2470.171,2020-12-25T16:00:23Z
2020-12-25T14:02:26Z,42.805,6.029,13.2982,4.59987,2470.133,2020-12-25T16:03:26Z
2020-12-25T14:05:29Z,42.805,6.029,13.2979,4.59986,2470.18,2020-12-25T16:06:29Z
2020-12-25T14:08:32Z,42.805,6.029,13.2985,4.59989,2470.156,2020-12-25T16:09:32Z
2020-12-25T14:11:35Z,42.805,6.029,13.2984,4.59991,2470.156,2020-12-25T16:12:35Z
2020-12-25T14:14:38Z,42.805,6.029,13.2982,4.59987,2470.133,2020-12-25T16:15:38Z
2020-12-25T14:17:42Z,42.805,6.029,13.2984,4.59987,2470.156,2020-12-25T16:18:41Z
2020-12-25T14:20:45Z,42.805,6.029,13.2979,4.59986,2470.171,2020-12-25T16:21:44Z
2020-12-25T14:23:48Z,42.805,6.029,13.2980,4.59988,2470.18,2020-12-25T16:24:48Z
2020-12-25T14:26:51Z,42.805,6.029,13.2982,4.59986,2470.18,2020-12-25T16:27:51Z
2020-12-25T14:29:54Z,42.805,6.029,13.2979,4.59986,2470.156,2020-12-25T16:30:54Z
2020-12-25T14:32:57Z,42.805,6.029,13.2980,4.59986,2470.156,2020-12-25T16:33:57Z
2020-12-25T14:36:00Z,42.805,6.029,13.2982,4.59987,2470.156,2020-12-25T16:37:00Z
2020-12-25T14:39:03Z,42.805,6.029,13.2976,4.59989,2470.18,2020-12-25T16:40:03Z
2020-12-25T14:42:07Z,42.805,6.029,13.2978,4.59991,2470.18,2020-12-25T16:43:06Z
2020-12-25T14:45:10Z,42.805,6.029,13.2983,4.59990,2470.156,2020-12-25T16:46:09Z
2020-12-25T14:48:13Z,42.805,6.029,13.2982,4.59989,2470.18,2020-12-25T16:49:13Z
2020-12-25T14:51:16Z,42.805,6.029,13.2977,4.59987,2470.18,2020-12-25T16:52:16Z
2020-12-25T14:54:19Z,42.805,6.029,13.2982,4.59988,2470.194,2020-12-25T16:55:19Z
2020-12-25T14:57:22Z,42.805,6.029,13.2980,4.59991,2470.18,2020-12-25T16:58:22Z
2020-12-25T15:00:25Z,42.805,6.029,13.2983,4.59991,2470.194,2020-12-25T17:01:25Z